Simultaneous Nadir Overpasses (SNOs) Predictions

Prediction of SNOs between AQUA and GOES-15 Satellite Orbit:

Table of predicted SNOs for the next 14.0 days since TLE Epoch: 7/17/2015
Index Date Time (AQUA) AQUA Lat,Lon GOES-15 Lat,Lon Distance(km) Time Diff (sec)
1 07/17/2015 22:23:18 0.81,-131.98 0.17,-135.10 354.75 80
2 07/18/2015 10:44:33 0.26,-137.14 -0.18,-135.10 231.88 80
3 07/20/2015 10:32:20 -0.41,-134.19 -0.18,-135.12 106.55 80
4 07/20/2015 22:53:43 -0.70,-139.38 0.20,-135.13 482.91 80
5 07/22/2015 10:20:06 -1.02,-131.22 -0.18,-135.13 444.53 80
6 07/22/2015 22:41:30 -0.08,-136.41 0.20,-135.14 145.09 80
7 07/24/2015 22:29:16 0.55,-133.45 0.20,-135.14 192.11 80
8 07/25/2015 10:50:30 0.51,-138.61 -0.21,-135.13 395.46 80
9 07/27/2015 10:38:16 -0.13,-135.64 -0.22,-135.12 59.19 80
10 07/29/2015 10:26:01 -0.72,-132.67 -0.22,-135.10 276.42 80
11 07/29/2015 22:47:25 -0.36,-137.86 0.23,-135.11 313.27 80




NCC Satellite Simultaneous Nadir Overpasses (SNOs) Prediction Service
